Time,TemperatureF,DewpointF,PressureIn,WindDirection,WindDirectionDegrees,WindSpeedMPH,WindSpeedGustMPH,Humidity,HourlyPrecipIn,Conditions,Clouds,dailyrainin,SoftwareType,DateUTC
2013-04-07 00:12:00,49.0,46.0,30.29,NE,37,6.0,9.0,88,0.00,,,0.00,weatherlink.com 1.10,2013-04-07 04:12:00,
2013-04-07 00:27:00,49.1,46.0,30.29,NE,44,6.0,12.0,88,0.00,,,0.00,weatherlink.com 1.10,2013-04-07 04:27:00,
2013-04-07 00:42:00,49.4,46.0,30.29,NE,47,7.0,11.0,87,0.00,,,0.00,weatherlink.com 1.10,2013-04-07 04:42:00,
2013-04-07 00:57:00,49.4,46.0,30.28,NE,44,10.0,10.0,87,0.00,,,0.00,weatherlink.com 1.10,2013-04-07 04:57:00,
2013-04-07 01:12:00,49.5,46.0,30.27,ENE,57,8.0,11.0,87,0.00,,,0.00,weatherlink.com 1.10,2013-04-07 05:12:00,
2013-04-07 01:27:00,49.6,46.0,30.27,NE,39,7.0,12.0,88,0.00,,,0.00,weatherlink.com 1.10,2013-04-07 05:27:00,
2013-04-07 01:43:00,49.7,46.0,30.27,NE,47,8.0,11.0,88,0.00,,,0.00,weatherlink.com 1.10,2013-04-07 05:43:00,
2013-04-07 01:58:00,49.5,46.0,30.27,NE,39,6.0,11.0,88,0.00,,,0.00,weatherlink.com 1.10,2013-04-07 05:58:00,
2013-04-07 04:03:00,50.1,47.0,30.25,NE,43,4.0,9.0,90,0.00,,,0.00,weatherlink.com 1.10,2013-04-07 08:03:00,
2013-04-07 04:44:00,50.0,48.0,30.24,NE,48,6.0,8.0,91,0.00,,,0.00,weatherlink.com 1.10,2013-04-07 08:44:00,
2013-04-07 04:59:00,50.0,48.0,30.24,NE,43,3.0,7.0,91,0.00,,,0.00,weatherlink.com 1.10,2013-04-07 08:59:00,
2013-04-07 05:13:00,50.2,48.0,30.25,NE,44,5.0,7.0,91,0.00,,,0.00,weatherlink.com 1.10,2013-04-07 09:13:00,
2013-04-07 05:29:00,50.3,48.0,30.25,NE,41,3.0,5.0,92,0.00,,,0.00,weatherlink.com 1.10,2013-04-07 09:29:00,
2013-04-07 05:59:00,-999.0,-99.9,30.26,North,-999,-999.0,-999.0,-999,0.00,,,0.00,weatherlink.com 1.10,2013-04-07 09:59:00,
2013-04-07 06:14:00,-999.0,-99.9,30.26,North,-999,-999.0,-999.0,-999,0.00,,,0.00,weatherlink.com 1.10,2013-04-07 10:14:00,
2013-04-07 06:29:00,-999.0,-99.9,30.26,North,-999,-999.0,-999.0,-999,0.00,,,0.00,weatherlink.com 1.10,2013-04-07 10:29:00,
2013-04-07 06:44:00,-999.0,-99.9,30.27,North,-999,-999.0,-999.0,-999,0.00,,,0.00,weatherlink.com 1.10,2013-04-07 10:44:00,
2013-04-07 06:59:00,-999.0,-99.9,30.27,North,-999,-999.0,-999.0,-999,0.00,,,0.00,weatherlink.com 1.10,2013-04-07 10:59:00,
2013-04-07 07:14:00,-999.0,-99.9,30.28,North,-999,-999.0,-999.0,-999,0.00,,,0.00,weatherlink.com 1.10,2013-04-07 11:14:00,
2013-04-07 07:44:00,52.6,50.0,30.29,NE,56,5.0,5.0,91,0.00,,,0.00,weatherlink.com 1.10,2013-04-07 11:44:00,
2013-04-07 07:59:00,53.5,50.0,30.29,NE,56,4.0,7.0,88,0.00,,,0.00,weatherlink.com 1.10,2013-04-07 11:59:00,
2013-04-07 08:14:00,54.8,51.0,30.29,East,92,4.0,6.0,86,0.00,,,0.00,weatherlink.com 1.10,2013-04-07 12:14:00,
2013-04-07 08:29:00,56.8,51.0,30.28,ESE,122,4.0,7.0,82,0.00,,,0.00,weatherlink.com 1.10,2013-04-07 12:29:00,
2013-04-07 09:00:00,59.2,51.0,30.29,SE,124,6.0,12.0,74,0.00,,,0.00,weatherlink.com 1.10,2013-04-07 13:00:00,
2013-04-07 09:15:00,59.2,51.0,30.29,ESE,122,7.0,10.0,74,0.00,,,0.00,weatherlink.com 1.10,2013-04-07 13:15:00,
2013-04-07 09:30:00,59.3,51.0,30.29,ESE,102,6.0,11.0,73,0.00,,,0.00,weatherlink.com 1.10,2013-04-07 13:30:00,
2013-04-07 09:45:00,59.8,51.0,30.29,ESE,116,10.0,13.0,72,0.00,,,0.00,weatherlink.com 1.10,2013-04-07 13:45:00,
2013-04-07 10:00:00,59.8,51.0,30.29,SE,136,7.0,12.0,72,0.00,,,0.00,weatherlink.com 1.10,2013-04-07 14:00:00,
2013-04-07 10:15:00,60.0,51.0,30.29,SE,124,11.0,12.0,71,0.00,,,0.00,weatherlink.com 1.10,2013-04-07 14:15:00,
2013-04-07 10:30:00,60.1,51.0,30.29,SE,146,8.0,12.0,71,0.00,,,0.00,weatherlink.com 1.10,2013-04-07 14:30:00,
2013-04-07 10:45:00,60.1,51.0,30.30,SE,124,7.0,13.0,72,0.00,,,0.00,weatherlink.com 1.10,2013-04-07 14:45:00,
2013-04-07 11:00:00,60.1,51.0,30.30,SE,138,8.0,13.0,73,0.00,,,0.00,weatherlink.com 1.10,2013-04-07 15:00:00,
2013-04-07 11:15:00,60.2,52.0,30.30,SE,146,8.0,12.0,73,0.00,,,0.00,weatherlink.com 1.10,2013-04-07 15:15:00,
2013-04-07 11:31:00,60.0,52.0,30.29,ESE,119,8.0,14.0,74,0.00,,,0.00,weatherlink.com 1.10,2013-04-07 15:31:00,
2013-04-07 11:45:00,60.3,52.0,30.29,East,89,5.0,11.0,75,0.00,,,0.00,weatherlink.com 1.10,2013-04-07 15:45:00,
2013-04-07 12:00:00,60.7,53.0,30.29,SE,136,7.0,11.0,75,0.00,,,0.00,weatherlink.com 1.10,2013-04-07 16:00:00,
2013-04-07 12:15:00,61.2,53.0,30.29,East,101,6.0,10.0,74,0.00,,,0.00,weatherlink.com 1.10,2013-04-07 16:15:00,
2013-04-07 12:30:00,61.5,53.0,30.28,SE,128,8.0,12.0,73,0.00,,,0.00,weatherlink.com 1.10,2013-04-07 16:30:00,
2013-04-07 12:45:00,61.5,52.0,30.28,SE,130,6.0,9.0,72,0.00,,,0.00,weatherlink.com 1.10,2013-04-07 16:45:00,
2013-04-07 13:00:00,62.4,52.0,30.27,ESE,119,6.0,9.0,70,0.00,,,0.00,weatherlink.com 1.10,2013-04-07 17:00:00,
2013-04-07 13:15:00,63.0,53.0,30.27,SE,124,5.0,8.0,70,0.00,,,0.00,weatherlink.com 1.10,2013-04-07 17:15:00,
2013-04-07 13:30:00,63.7,53.0,30.26,SE,139,4.0,6.0,68,0.00,,,0.00,weatherlink.com 1.10,2013-04-07 17:30:00,
2013-04-07 13:45:00,63.8,53.0,30.25,SE,135,5.0,6.0,68,0.00,,,0.00,weatherlink.com 1.10,2013-04-07 17:45:00,
2013-04-07 14:00:00,63.8,53.0,30.25,SSE,159,4.0,6.0,69,0.00,,,0.00,weatherlink.com 1.10,2013-04-07 18:00:00,
2013-04-07 14:15:00,64.6,54.0,30.24,SE,136,2.0,6.0,68,0.00,,,0.00,weatherlink.com 1.10,2013-04-07 18:15:00,
2013-04-07 14:30:00,64.5,53.0,30.24,SSE,149,4.0,5.0,67,0.00,,,0.00,weatherlink.com 1.10,2013-04-07 18:30:00,
2013-04-07 14:45:00,65.9,54.0,30.23,SSW,205,2.0,3.0,65,0.00,,,0.00,weatherlink.com 1.10,2013-04-07 18:45:00,
2013-04-07 15:00:00,67.2,54.0,30.23,SSW,194,3.0,3.0,63,0.00,,,0.00,weatherlink.com 1.10,2013-04-07 19:00:00,
2013-04-07 15:15:00,66.8,54.0,30.23,South,176,1.0,3.0,63,0.00,,,0.00,weatherlink.com 1.10,2013-04-07 19:15:00,
2013-04-07 15:30:00,66.3,53.0,30.22,South,190,1.0,4.0,63,0.00,,,0.00,weatherlink.com 1.10,2013-04-07 19:30:00,
2013-04-07 15:45:00,66.8,54.0,30.21,SW,214,0.0,5.0,63,0.00,,,0.00,weatherlink.com 1.10,2013-04-07 19:45:00,
2013-04-07 16:00:00,66.6,53.0,30.21,SSE,159,1.0,3.0,62,0.00,,,0.00,weatherlink.com 1.10,2013-04-07 20:00:00,
2013-04-07 16:15:00,65.9,54.0,30.21,SSW,193,3.0,4.0,65,0.00,,,0.00,weatherlink.com 1.10,2013-04-07 20:15:00,
2013-04-07 16:31:00,66.4,55.0,30.21,South,183,1.0,4.0,68,0.00,,,0.00,weatherlink.com 1.10,2013-04-07 20:31:00,
2013-04-07 16:46:00,66.2,54.0,30.21,SSW,203,1.0,3.0,66,0.00,,,0.00,weatherlink.com 1.10,2013-04-07 20:46:00,
2013-04-07 17:01:00,65.8,54.0,30.20,South,183,3.0,3.0,65,0.00,,,0.00,weatherlink.com 1.10,2013-04-07 21:01:00,
2013-04-07 17:16:00,65.7,54.0,30.20,SSW,203,2.0,3.0,67,0.00,,,0.00,weatherlink.com 1.10,2013-04-07 21:16:00,
2013-04-07 17:31:00,65.6,55.0,30.20,SSW,201,2.0,2.0,69,0.00,,,0.00,weatherlink.com 1.10,2013-04-07 21:31:00,
2013-04-07 17:46:00,64.9,55.0,30.20,SE,146,2.0,3.0,70,0.00,,,0.00,weatherlink.com 1.10,2013-04-07 21:46:00,
2013-04-07 18:01:00,63.6,55.0,30.20,SSW,201,1.0,4.0,74,0.00,,,0.00,weatherlink.com 1.10,2013-04-07 22:01:00,
2013-04-07 18:16:00,62.1,56.0,30.19,SE,139,4.0,5.0,79,0.00,,,0.00,weatherlink.com 1.10,2013-04-07 22:16:00,
2013-04-07 18:31:00,59.9,54.0,30.19,SE,142,4.0,6.0,82,0.00,,,0.00,weatherlink.com 1.10,2013-04-07 22:31:00,
2013-04-07 19:01:00,57.8,53.0,30.19,South,177,5.0,10.0,84,0.00,,,0.00,weatherlink.com 1.10,2013-04-07 23:01:00,
2013-04-07 19:31:00,57.7,53.0,30.19,South,186,8.0,11.0,84,0.00,,,0.00,weatherlink.com 1.10,2013-04-07 23:31:00,
2013-04-07 20:01:00,56.7,53.0,30.19,SSW,210,4.0,10.0,86,0.00,,,0.00,weatherlink.com 1.10,2013-04-08 00:01:00,
2013-04-07 20:31:00,56.6,53.0,30.20,SSW,212,6.0,9.0,86,0.00,,,0.00,weatherlink.com 1.10,2013-04-08 00:31:00,
2013-04-07 20:46:00,56.6,53.0,30.21,SSW,206,7.0,10.0,86,0.00,,,0.00,weatherlink.com 1.10,2013-04-08 00:46:00,
2013-04-07 21:01:00,56.5,52.0,30.21,SW,217,5.0,8.0,86,0.00,,,0.00,weatherlink.com 1.10,2013-04-08 01:01:00,
2013-04-07 21:16:00,56.2,52.0,30.22,WSW,240,4.0,7.0,87,0.00,,,0.00,weatherlink.com 1.10,2013-04-08 01:16:00,
2013-04-07 21:31:00,56.4,53.0,30.22,SSW,207,6.0,8.0,87,0.00,,,0.00,weatherlink.com 1.10,2013-04-08 01:31:00,
2013-04-07 22:01:00,56.1,52.0,30.22,SSW,212,4.0,7.0,87,0.00,,,0.00,weatherlink.com 1.10,2013-04-08 02:01:00,
2013-04-07 22:16:00,55.9,52.0,30.22,SSW,211,4.0,7.0,87,0.00,,,0.00,weatherlink.com 1.10,2013-04-08 02:16:00,
2013-04-07 22:31:00,56.2,52.0,30.22,SW,214,5.0,10.0,86,0.00,,,0.00,weatherlink.com 1.10,2013-04-08 02:31:00,
2013-04-07 22:46:00,56.6,52.0,30.21,SW,221,8.0,10.0,85,0.00,,,0.00,weatherlink.com 1.10,2013-04-08 02:46:00,
2013-04-07 23:31:00,57.0,52.0,30.21,SSW,208,8.0,13.0,84,0.00,,,0.00,weatherlink.com 1.10,2013-04-08 03:31:00,
2013-04-07 23:46:00,57.1,52.0,30.20,SW,222,9.0,13.0,83,0.00,,,0.00,weatherlink.com 1.10,2013-04-08 03:46:00,